Regional Weather Roundup
Issued by NWS Bismarck, ND

Home | Current Version | Previous Version | Text Only | Print | Product List | Glossary On
Versions: 1 2 3 4 5 6 7 8 9 10 11 12 13 14 15 16 17 18 19 20 21 22 23 24 25 26 27 28 29 30 31 32 33 34 35 36 37 38 39 40 41 42 43 44 45 46 47 48 49 50
000
ASUS43 KBIS 240110
RWRBIS

NWR BROADCAST TEXT
NATIONAL WEATHER SERVICE BISMARCK ND
700 PM CST THU NOV 23 2017

NOTE: "FAIR" INDICATES FEW OR NO CLOUDS BELOW 12,000 FEET WITH NO
SIGNIFICANT WEATHER AND/OR OBSTRUCTIONS TO VISIBILITY.


CITY           SKY/WX    TMP DP  RH WIND       PRES   REMARKS
WILLISTON      CLEAR     54  36  50 SW9       29.43F
MINOT          CLEAR     57  37  47 SW16G24   29.37F
MINOT AFB      CLEAR     56  38  50 W17       29.35F
BISMARCK       CLEAR     56  37  49 W7        29.51F
DICKINSON      CLEAR     56  36  47 SW16      29.52F
GARRISON         N/A     50  38  63 W14       29.44F
HETTINGER ARPT CLEAR     56  36  47 SW13      29.60F
JAMESTOWN      CLOUDY    51  39  63 SW12      29.46F
CARRINGTON     FAIR      54  39  58 SW13      29.46S
HAZEN          FAIR      57  37  47 SW13      29.49F
LINTON           N/A     55  36  47 S12       29.55F
MANDAN         FAIR      55  36  47 SW12      29.51F
OAKES            N/A     46  37  71 S15       29.54F
RUGBY          FAIR      48  39  71 SW18      29.35F
STANLEY        FAIR      54  37  54 SW12      29.43F
TIOGA          FAIR      52  36  54 SW14      29.42F
WATFORD CITY   FAIR      52  37  58 SW10      29.46F
$$

CITY           SKY/WX    TMP DP  RH WIND       PRES   REMARKS
GRAND FORKS    PTCLDY    38  33  82 S16       29.41F
GRAND FORKS AF CLEAR     38  34  84 S10       29.40F
DEVILS LAKE    CLEAR     50  38  63 SW20      29.38F
FARGO          CLEAR     43  31  62 S10       29.50F
CANDO          FAIR      41  41 100 SW12      29.37F
CAVALIER       FAIR      32  30  93 S14       29.35F
GRAFTON        FAIR      34  32  93 S13       29.40F
GWINNER          N/A     48  37  66 SW13      29.53F
LANGDON        FAIR      37  37 100 SW18      29.34F
ROLLA          FAIR      39  37  93 SW14      29.33F
WALHALLA       FAIR      36  36 100 SE7       29.33F
$$

CITY           SKY/WX    TMP DP  RH WIND       PRES   REMARKS
ABERDEEN       CLEAR     47  38  71 S12       29.59F
MOBRIDGE       CLEAR     54  39  57 S9        29.56F
RAPID CITY     CLOUDY    54  33  45 NW7       29.70F
GLASGOW        CLOUDY    63  37  38 W15       29.45F
SIDNEY         CLEAR     49  35  58 SW10      29.47F
WOLF POINT     CLEAR     56  35  45 S7        29.44F
GLENDIVE       CLEAR     56  37  49 S10       29.52F
MILES CITY     CLEAR     58  39  49 SW12      29.57F
BAKER          CLEAR     57  38  48 SW16G22   29.59F
$$

CITY           SKY/WX    TMP DP  RH WIND       PRES   REMARKS
BILLINGS       PTCLDY    60  34  37 W13       29.67F
GREAT FALLS    PTCLDY    54  39  57 SW29G41   29.56F
REGINA         PTCLDY    39  36  87 W17       29.34R
ESTEVAN        PTCLDY    50  37  62 SW12      29.34S
$$




USA.gov is the U.S. government's official web portal to all federal, state and local government web resources and services.